Waarnemingen

Advertentie
Mijn weer
Grenoble/St.Geoirs, Frankrijk (7486): temperatuur & dauwpunt: 11.12.2018 20:00:00 - 17.12.2018 20:00:00 (CET)Grenoble/St.Geoirs, Frankrijk (7486): temperatuur 5cm: 11.12.2018 20:00:00 - 17.12.2018 20:00:00 (CET)Grenoble/St.Geoirs, Frankrijk (7486): temperatuur -20cm & temperatuur -100cm: 11.12.2018 20:00:00 - 17.12.2018 20:00:00 (CET)Grenoble/St.Geoirs, Frankrijk (7486): windsnelheid & windstoten: 11.12.2018 20:00:00 - 17.12.2018 20:00:00 (CET)Grenoble/St.Geoirs, Frankrijk (7486): windrichting: 11.12.2018 20:00:00 - 17.12.2018 20:00:00 (CET)Grenoble/St.Geoirs, Frankrijk (7486): luchtdruk: 11.12.2018 20:00:00 - 17.12.2018 20:00:00 (CET)Grenoble/St.Geoirs, Frankrijk (7486): zicht: 11.12.2018 20:00:00 - 17.12.2018 20:00:00 (CET)Grenoble/St.Geoirs, Frankrijk (7486): Zonneschijnduur: 11.12.2018 20:00:00 - 17.12.2018 20:00:00 (CET)Grenoble/St.Geoirs, Frankrijk (7486): neerslag: 11.12.2018 20:00:00 - 17.12.2018 20:00:00 (CET)
Datum & Tijd tt [°C] td [°C] tt 5cm [°C] tt -20cm [°C] tt -100cm [°C] ff [km/u] ff [kn] fx [km/u] fx [kn] dd ppp [hPa] vv [km] sd [min] rr [mm]
17.12.2018 20:00:00 0,5 -0,5 -3,2 6,7 9,3 5 3 10 5 O 1030,9 14 0 0,0
17.12.2018 19:00:00 2,5 0,9 -2,8 6,7 9,3 4 2 12 7 N 1030,5 14 0 0,0
17.12.2018 18:00:00 2,1 -1,5 -1,3 6,6 9,3 8 4 10 6 O 1030,1 39 0 0,0
17.12.2018 17:00:00 4,5 0,8 1,5 6,6 9,3 8 5 16 8 ONO 1028,9 57 13 0,0
17.12.2018 16:00:00 6,7 2,4 5,9 6,5 9,3 12 7 24 13 ONO 1028,3 56 27 0,0
17.12.2018 15:00:00 8,2 2,8 7,8 6,4 9,2 9 5 19 11 NNO 1027,7 54 10 0,0
17.12.2018 14:00:00 7,9 2,8 8,6 6,4 9,3 16 8 22 12 NW 1027,0 54 24 0,0
17.12.2018 13:00:00 7,8 3,5 8,8 6,4 9,3 11 6 18 10 NNO 1026,3 52 22 0,0
17.12.2018 12:00:00 8,1 4,3 9,0 6,4 9,3 7 4 16 8 O 1026,6 41 21 0,0
17.12.2018 11:00:00 7,1 4,1 7,1 6,4 9,3 0 0 7 4 N 1027,0 19 9 0,0
17.12.2018 10:00:00 5,8 3,5 4,5 6,4 9,3 5 3 14 7 N 1026,4 22 0 0,0
17.12.2018 09:00:00 4,8 3,3 3,1 6,4 9,3 4 2 9 5 NNW 1025,0 26 0 0,0
17.12.2018 08:00:00 4,7 3,4 3,6 6,4 9,3 3 2 14 8 NW 1023,8 19 0 0,0
17.12.2018 07:00:00 4,8 3,9 4,3 6,4 9,3 5 3 11 6 Z 1022,5 14 0 0,2
17.12.2018 06:00:00 4,7 3,5 4,4 6,4 9,4 10 6 20 11 WNW 1021,5 11 0 0,6
17.12.2018 05:00:00 4,7 4,0 4,5 6,3 9,3 13 7 21 12 WZW 1020,5 0,6 0 0,2
17.12.2018 04:00:00 4,6 3,7 4,5 6,3 9,3 8 4 13 7 W 1019,3 1,2 0 0,2
17.12.2018 03:00:00 4,7 3,8 3,9 6,3 9,3 4 2 8 4 O 1018,4 3,1 0 0,0
17.12.2018 02:00:00 4,5 3,6 3,5 6,3 9,3 4 2 6 4 ONO 1017,6 3,0 0 0,0
17.12.2018 01:00:00 4,8 3,9 4,3 6,2 9,4 4 2 9 5 ZO 1017,1 1,5 0 0,0
17.12.2018 00:00:00 4,9 4,0 4,5 6,2 9,4 6 3 11 6 NO 1016,8 2,8 0 0,0
16.12.2018 23:00:00 5,4 4,4 5,0 6,2 9,4 3 1 13 7 ZO 1015,9 2,5 0 0,0
16.12.2018 22:00:00 5,3 4,4 4,6 6,2 9,4 11 6 21 11 NO 1015,4 6 0 0,0
16.12.2018 21:00:00 5,0 4,1 4,4 6,2 9,4 13 7 18 10 O 1015,1 5 0 0,0
16.12.2018 20:00:00 4,7 3,8 4,4 6,1 9,4 9 5 14 8 NO 1015,4 3,0 0 0,0
16.12.2018 19:00:00 4,9 3,9 4,6 6,1 9,4 8 4 13 7 O 1015,1 3,2 0 0,2
16.12.2018 18:00:00 5,1 3,9 4,8 6,1 9,4 7 4 17 9 ONO 1014,6 6 0 0,0
16.12.2018 17:00:00 5,4 4,0 5,2 6,0 9,4 8 4 18 10 O 1014,2 9 0 0,0
16.12.2018 16:00:00 5,4 3,9 5,2 6,0 9,4 5 3 14 8 NO 1014,4 10 0 0,0
16.12.2018 15:00:00 5,8 4,1 5,9 6,0 9,4 5 3 11 6 O 1014,7 18 0 0,0
16.12.2018 14:00:00 5,6 3,8 6,0 5,9 9,4 5 3 9 5 ONO 1015,2 19 0 0,0
16.12.2018 13:00:00 5,4 3,7 5,6 5,9 9,4 5 3 11 6 ZZO 1016,0 10 0 0,0
16.12.2018 12:00:00 5,2 3,7 4,7 5,9 9,5 0 0 34 18 N 1016,7 26 0 0,0
16.12.2018 11:00:00 4,6 3,6 4,1 5,9 9,5 23 12 34 18 O 1015,9 12 0 0,0
16.12.2018 10:00:00 4,0 3,0 3,5 5,9 9,5 4 2 12 6 Z 1018,2 3,6 0 0,4
16.12.2018 09:00:00 3,5 2,6 2,7 5,9 9,5 12 7 33 18 N 1017,7 9 0 0,0
16.12.2018 08:00:00 2,8 1,8 2,5 5,9 9,5 4 2 20 11 OZO 1017,8 3,5 0 1,8
16.12.2018 07:00:00 3,0 2,0 2,3 5,9 9,5 5 3 35 19 OZO 1017,5 5 0 0,0
16.12.2018 06:00:00 2,5 1,5 2,3 5,9 9,5 15 8 24 13 ONO 1017,4 5 0 0,0
16.12.2018 05:00:00 2,4 1,4 2,2 6,0 9,5 15 8 22 12 O 1017,9 5 0 0,0
16.12.2018 04:00:00 2,4 1,4 1,5 5,9 9,5 16 9 26 14 NO 1017,5 4,2 0 0,4
16.12.2018 03:00:00 1,6 0,4 1,1 6,0 9,5 17 9 25 14 ONO 1017,9 3,7 0 0,4
16.12.2018 02:00:00 1,3 0,0 1,0 6,0 9,5 14 8 23 12 ONO 1018,4 3,9 0 0,6
16.12.2018 01:00:00 1,3 -0,2 1,1 6,0 9,5 13 7 20 11 ONO 1018,8 2,7 0 0,8
16.12.2018 00:00:00 1,5 -0,1 0,8 6,0 9,6 6 3 16 9 ONO 1019,5 3,6 0 0,2
15.12.2018 23:00:00 0,9 -0,9 0,4 6,0 9,6 5 3 10 6 ONO 1020,0 3,4 0 0,2
15.12.2018 22:00:00 0,7 -1,7 0,4 6,0 9,6 2 1 6 3 W 1020,3 3,5 0 0,2
15.12.2018 21:00:00 0,9 -2,0 0,6 5,9 9,6 4 2 6 3 WNW 1020,1 6 0 0,0
15.12.2018 20:00:00 1,2 -2,7 1,2 5,9 9,6 4 2 11 6 ZW 1020,4 7 0 0,0
15.12.2018 19:00:00 1,7 -2,8 1,0 5,9 9,6 6 3 19 11 O 1020,7 10 0 0,0
15.12.2018 18:00:00 1,4 -2,4 1,2 5,9 9,6 6 3 12 6 O 1021,4 8 0 0,0
15.12.2018 17:00:00 1,6 -2,9 1,4 5,9 9,6 10 6 17 9 O 1021,6 9 0 0,0
15.12.2018 16:00:00 2,0 -3,3 2,5 5,8 9,6 5 3 11 6 O 1022,3 10 10 0,0
15.12.2018 15:00:00 1,8 -3,3 2,7 5,8 9,6 7 4 17 9 N 1022,5 10 0 0,0
15.12.2018 14:00:00 1,5 -3,4 3,0 5,8 9,6 10 5 18 10 N 1022,3 9 5 0,0
15.12.2018 13:00:00 1,6 -3,9 3,2 5,8 9,6 10 6 16 9 ONO 1022,8 10 23 0,0
15.12.2018 12:00:00 1,1 -3,6 2,5 5,8 9,6 7 4 16 8 ONO 1023,5 8 15 0,0
15.12.2018 11:00:00 -0,3 -3,8 0,0 5,9 9,7 4 2 22 12 ONO 1024,4 7 0 0,0
15.12.2018 10:00:00 -0,8 -3,7 -0,9 5,9 9,7 18 10 24 13 N 1024,3 7 0 0,0
15.12.2018 09:00:00 -1,1 -3,9 -1,4 5,9 9,7 16 9 24 13 N 1023,9 7 0 0,0
15.12.2018 08:00:00 -1,3 -4,3 -1,7 6,0 9,7 7 4 22 12 N 1024,2 8 0 0,0
15.12.2018 07:00:00 -1,2 -4,2 -1,4 6,0 9,7 12 7 20 11 N 1024,0 7 0 0,0
15.12.2018 06:00:00 -1,4 -4,6 -1,9 6,0 9,7 6 3 14 8 NNO 1023,6 8 0 0,0
15.12.2018 05:00:00 -1,5 -4,7 -2,2 6,0 9,7 8 5 24 13 N 1023,8 9 0 0,0
15.12.2018 04:00:00 -1,6 -4,6 -2,4 6,1 9,7 9 5 20 11 N 1023,8 9 0 0,0
15.12.2018 03:00:00 -1,4 -4,7 -1,5 6,1 9,7 7 4 20 11 NNO 1024,2 9 0 0,0
15.12.2018 02:00:00 -1,5 -5,0 -1,6 6,1 9,7 6 3 23 13 N 1024,3 11 0 0,0
15.12.2018 01:00:00 -1,5 -4,8 -1,6 6,2 9,7 9 5 24 13 NW 1024,3 11 0 0,0
15.12.2018 00:00:00 -1,6 -4,6 -1,7 6,2 9,7 11 6 19 11 NW 1023,7 11 0 0,0
14.12.2018 23:00:00 -1,4 -4,6 -1,4 6,2 9,7 12 6 18 10 NNW 1023,0 11 0 0,0
14.12.2018 22:00:00 -1,2 -4,4 -1,5 6,2 9,8 8 4 16 9 NNO 1023,4 8 0 0,0
14.12.2018 21:00:00 -1,2 -4,4 -1,5 6,2 9,8 10 6 26 14 NNW 1023,7 9 0 0,0
14.12.2018 20:00:00 -0,7 -4,1 -1,0 6,2 9,8 5 3 23 13 NNW 1023,2 9 0 0,0
14.12.2018 19:00:00 -0,3 -3,3 -0,4 6,2 9,8 9 5 22 12 NNW 1022,5 8 0 0,0
14.12.2018 18:00:00 -0,3 -3,2 -0,3 6,2 9,8 6 3 22 12 NW 1022,1 7 0 0,0
14.12.2018 17:00:00 0,2 -3,0 0,2 6,1 9,8 11 6 21 11 WNW 1020,5 7 0 0,0
14.12.2018 16:00:00 0,5 -2,7 0,9 6,1 9,8 5 3 17 9 N 1019,6 7 0 0,0
14.12.2018 15:00:00 0,8 -2,1 1,5 6,1 9,8 10 5 18 10 N 1018,9 7 0 0,0
14.12.2018 14:00:00 0,8 -2,3 2,5 6,1 9,8 8 4 21 11 NNW 1018,6 6 0 0,0
14.12.2018 13:00:00 1,4 -1,5 3,0 6,1 9,8 13 7 21 11 NNW 1018,1 7 25 0,0
14.12.2018 12:00:00 2,4 -1,8 6,2 6,1 9,8 13 7 19 10 N 1017,7 9 60 0,0
14.12.2018 11:00:00 2,5 -2,2 2,7 6,2 9,8 3 1 7 4 OZO 1017,8 10 34 0,0
14.12.2018 10:00:00 1,9 -3,0 0,7 6,2 9,9 3 1 7 4 OZO 1017,1 7 60 0,0
14.12.2018 09:00:00 -0,1 -3,0 -1,5 6,2 9,9 6 3 13 7 N 1016,7 4,7 23 0,0
14.12.2018 08:00:00 -0,6 -3,6 -2,9 6,2 9,9 5 3 12 6 N 1015,8 5 0 0,0
14.12.2018 07:00:00 -0,8 -3,8 -2,8 6,3 9,9 3 1 9 5 ZZW 1015,5 7 0 0,0
14.12.2018 06:00:00 -0,5 -3,5 -1,9 6,3 9,9 4 2 14 7 ONO 1015,0 9 0 0,0
14.12.2018 05:00:00 -0,5 -1,6 -1,5 6,3 9,9 7 4 11 6 NW 1014,6 4,0 0 0,0
14.12.2018 04:00:00 -0,1 -1,7 -1,2 6,3 9,9 4 2 5 3 W 1014,2 4,7 0 0,0
14.12.2018 03:00:00 0,1 -1,8 -0,5 6,3 9,9 3 2 8 4 ZO 1014,1 6 0 0,0
14.12.2018 02:00:00 -0,4 -1,7 -1,0 6,3 9,9 6 3 14 8 WZW 1014,0 3,1 0 0,0
14.12.2018 01:00:00 0,5 -1,3 0,5 6,4 10,0 5 3 9 5 NW 1013,2 4,3 0 0,0
14.12.2018 00:00:00 0,6 -1,5 0,6 6,4 10,0 4 2 10 5 ZW 1013,0 4,8 0 0,0
13.12.2018 23:00:00 1,5 -2,5 0,8 6,4 10,0 8 4 14 8 ONO 1012,6 16 0 0,0
13.12.2018 22:00:00 1,7 -2,6 1,2 6,4 10,0 3 2 12 7 NNO 1012,4 18 0 0,0
13.12.2018 21:00:00 1,9 -2,2 1,4 6,3 10,0 3 2 13 7 WNW 1011,7 18 0 0,0
13.12.2018 20:00:00 1,8 -2,3 1,4 6,4 10,0 10 5 22 12 O 1011,0 18 0 0,0
13.12.2018 19:00:00 1,8 -1,6 1,2 6,3 10,0 8 4 12 7 NO 1010,9 15 0 0,0
13.12.2018 18:00:00 1,7 -2,3 0,7 6,3 10,0 5 3 15 8 ZZO 1010,9 16 0 0,0
13.12.2018 17:00:00 2,3 -2,2 1,5 6,3 10,0 6 4 21 11 ONO 1010,4 19 0 0,0
13.12.2018 16:00:00 2,7 -3,4 2,7 6,3 10,0 13 7 23 12 O 1010,2 13 0 0,0
13.12.2018 15:00:00 2,9 -3,5 3,2 6,2 10,0 16 9 24 13 O 1009,9 16 0 0,0
13.12.2018 14:00:00 3,1 -3,1 3,5 6,2 10,1 12 6 26 14 ONO 1010,3 27 0 0,0
13.12.2018 13:00:00 2,9 -3,7 3,4 6,2 10,1 21 12 36 19 O 1010,3 30 0 0,0
13.12.2018 12:00:00 2,9 -3,7 3,5 6,2 10,1 24 13 45 25 O 1010,9 29 13 0,0
13.12.2018 11:00:00 3,3 -2,9 2,8 6,3 10,1 23 13 40 22 ONO 1011,8 20 58 0,0
13.12.2018 10:00:00 2,0 -3,9 0,2 6,3 10,1 26 14 36 19 O 1012,2 27 37 0,0
13.12.2018 09:00:00 0,3 -4,3 -1,4 6,4 10,1 23 12 33 18 O 1012,8 27 0 0,0
13.12.2018 08:00:00 -0,7 -3,4 -1,7 6,4 10,1 16 9 21 12 O 1013,3 24 0 0,0
13.12.2018 07:00:00 -1,5 -2,6 -1,8 6,4 10,1 3 1 10 6 WZW 1014,1 3,1 0 0,0
13.12.2018 06:00:00 -1,5 -2,5 -3,1 6,5 10,1 5 3 7 4 W 1014,4 2,7 0 0,0
13.12.2018 05:00:00 -1,8 -3,1 -3,1 6,5 10,1 0 0 4 2 N 1014,6 3,3 0 0,0
13.12.2018 04:00:00 -1,8 -2,9 -2,5 6,6 10,2 0 0 8 5 N 1015,4 1,8 0 0,0
13.12.2018 03:00:00 -2,0 -3,0 -5,8 6,6 10,2 6 3 10 5 W 1016,2 1,9 0 0,0
13.12.2018 02:00:00 -2,0 -3,9 -5,8 6,6 10,2 2 1 9 5 WNW 1016,3 8 0 0,0
13.12.2018 01:00:00 -2,4 -4,4 -5,2 6,7 10,2 3 2 11 6 OZO 1016,9 8 0 0,0
13.12.2018 00:00:00 -0,8 -3,0 -1,9 6,7 10,2 10 6 15 8 ONO 1017,6 10 0 0,0
12.12.2018 23:00:00 -0,4 -3,1 -0,9 6,7 10,2 8 4 12 6 NNO 1018,4 9 0 0,0
12.12.2018 22:00:00 -0,2 -2,7 -0,7 6,7 10,2 7 4 18 10 NNO 1018,2 9 0 0,0
12.12.2018 21:00:00 -0,1 -2,8 -0,4 6,7 10,2 14 8 22 12 NNO 1018,8 10 0 0,0
12.12.2018 20:00:00 0,7 -2,5 0,4 6,7 10,2 14 7 23 12 NNO 1018,4 13 0 0,0
12.12.2018 19:00:00 1,3 -2,6 0,3 6,7 10,2 2 1 16 9 NO 1018,4 19 0 0,0
12.12.2018 18:00:00 1,6 -1,8 1,1 6,7 10,2 12 7 17 9 NNO 1018,9 17 0 0,0
12.12.2018 17:00:00 2,2 -2,1 1,8 6,6 10,2 11 6 18 10 NNO 1018,8 19 16 0,0
12.12.2018 16:00:00 3,0 -1,9 3,4 6,7 10,3 12 7 19 11 NNO 1019,1 19 41 0,0
12.12.2018 15:00:00 4,3 -2,1 5,7 6,6 10,3 10 6 22 12 NO 1019,0 27 44 0,0
12.12.2018 14:00:00 3,3 -2,2 5,0 6,7 10,3 6 3 11 6 NO 1020,1 24 0 0,0
12.12.2018 13:00:00 3,2 -1,8 4,1 6,7 10,3 8 4 21 11 ONO 1020,6 33 4 0,0
12.12.2018 12:00:00 2,8 -2,1 4,1 6,8 10,3 13 7 20 11 NO 1021,0 23 52 0,0
12.12.2018 11:00:00 2,3 -1,5 2,8 6,9 10,3 9 5 18 10 ONO 1021,9 19 60 0,0
12.12.2018 10:00:00 -0,2 -1,2 -3,9 7,0 10,3 5 3 8 4 O 1022,7 7 60 0,0
12.12.2018 09:00:00 -3,1 -4,1 -9,2 7,1 10,3 3 2 5 3 Z 1023,2 6 25 0,0
12.12.2018 08:00:00 -3,8 -4,9 -9,2 7,2 10,3 0 0 8 5 N 1022,9 6 0 0,0
12.12.2018 07:00:00 -4,1 -5,1 -7,8 7,2 10,3 6 3 12 7 O 1023,1 6 0 0,0
12.12.2018 06:00:00 -3,1 -3,9 -7,8 7,3 10,3 4 2 10 5 ONO 1023,2 6 0 0,0
12.12.2018 05:00:00 -4,0 -5,4 -7,4 7,4 10,3 6 4 9 5 O 1023,6 8 0 0,0
12.12.2018 04:00:00 -4,0 -5,7 -7,4 7,5 10,3 6 4 8 5 OZO 1024,1 7 0 0,0
12.12.2018 03:00:00 -3,1 -4,4 -7,6 7,5 10,3 4 2 8 5 O 1024,2 9 0 0,0
12.12.2018 02:00:00 -2,5 -3,5 -6,9 7,6 10,3 5 3 10 5 OZO 1024,3 11 0 0,0
12.12.2018 01:00:00 -1,7 -3,0 -7,1 7,7 10,3 3 2 9 5 WZW 1024,3 13 0 0,0
12.12.2018 00:00:00 -1,6 -2,9 -6,3 7,8 10,3 5 3 9 5 Z 1024,4 12 0 0,0
11.12.2018 23:00:00 -1,2 -3,2 -4,8 7,8 10,3 2 1 7 4 ZZO 1024,3 13 0 0,0
11.12.2018 22:00:00 0,9 -2,3 -3,0 7,9 10,3 3 2 13 7 OZO 1023,8 23 0 0,0
11.12.2018 21:00:00 1,5 -2,1 -1,0 7,9 10,3 3 1 23 12 O 1023,6 20 0 0,0
11.12.2018 20:00:00 2,5 -1,1 0,6 7,9 10,3 15 8 22 12 N 1023,3 34 0 0,0

tt = temperatuur
td = dauwpunt
tt 5cm = temperatuur 5cm
tt -20cm = temperatuur -20cm
tt -100cm = temperatuur -100cm
ff = windsnelheid
fx = windstoten
dd = windrichting
ppp = luchtdruk
vv = zicht
sd = Zonneschijnduur
rr = neerslag

Weerstations in de omgeving